User: anonymous   Login
Location: Unspecified
(0.0000°N, 0.0000°E)
Time: 03:00:38
(UTC+00:00)
Language:

STARLINK-30866 - Orbit

View from above orbital plane
View from above orbital plane
View from above satellite
View from above satellite

Ground track
Ground track

The orbit is defined by the following mean orbital elements,

1 58237U          26145.18000164 +.00000000 +00000-0 +62353-4 0 00009
2 58237  43.0044 213.1687 0001953 272.8609  87.2019 15.27575783    09
Epoch (UTC): 25 May 2026 04:19:12
Eccentricity: 0.0001953
inclination: 43.0044°
perigee height: 482 km
apogee height: 484 km
right ascension of ascending node: 213.1687°
argument of perigee: 272.8609°
revolutions per day: 15.27575783
mean anomaly at epoch: 87.2019°

The dashed part of the orbit path shows where the satellite is in the earth's shadow,  

DLR